M I D A S
Marine Information and Data Acquisition System
Tripno 694 of the Zeeleeuw from 2004-04-14 06:14:40 to 2004-04-14 15:42:14
Back to CruiseResearch ActivitiesStationsMapUnderway DataData graphs

EquipmentUnitsComments
TimeDGPSUTC
LatitudeDGPSDM.mWGS84
LongitudeDGPSDM.mWGS84
SpeedMeteo Stationm/sRelative wind speed
DirectionMeteo StationdegRelative wind direction
TemperatureMeteo Stationdeg CelciusAir temperature
PressureMeteo StationPaAtmospheric pressure
HumidityMeteo Station%Relative humidity
Missing or incorrect values are displayed as -999
Metereological data collected by the RV Zeeleeuw from 2004-04-14 06:14:40 to 2004-04-14 15:42:14
Time Latitude Longitude Speed Direction Temperature Pressure Humidity
2004-04-14 06:15 51°13.662 2°55.936 1.3 134 5.2 102220 94
2004-04-14 06:16 51°13.676 2°55.824 2.5 161 5.2 102220 94
2004-04-14 06:17 51°13.674 2°55.752 1.5 95 5.3 102220 94
2004-04-14 06:18 51°13.715 2°55.758 0.2 116 5.4 102220 94
2004-04-14 06:19 51°13.789 2°55.677 1.8 351 5.5 102220 94
2004-04-14 06:20 51°13.893 2°55.583 1.6 352 5.6 102220 94
2004-04-14 06:21 51°14.013 2°55.497 1.4 13 5.7 102220 94
2004-04-14 06:22 51°14.145 2°55.402 2.2 5 5.8 102220 94
2004-04-14 06:23 51°14.281 2°55.235 3.4 347 6 102220 94
2004-04-14 06:24 51°14.403 2°55.007 3.8 1 6.2 102220 94
2004-04-14 06:25 51°14.593 2°54.818 6.5 3 6.5 102220 94
2004-04-14 06:26 51°14.784 2°54.614 7.3 348 6.7 102220 94
2004-04-14 06:27 51°14.973 2°54.41 6.5 344 6.7 102230 94
2004-04-14 06:28 51°15.162 2°54.208 5.7 353 6.8 102230 94
2004-04-14 06:29 51°15.363 2°54.014 6.6 349 6.8 102230 94
2004-04-14 06:30 51°15.557 2°53.828 7.9 354 6.9 102230 94
2004-04-14 06:31 51°15.757 2°53.636 7.5 354 6.9 102230 94
2004-04-14 06:32 51°15.952 2°53.449 7 355 7 102230 94
2004-04-14 06:33 51°16.159 2°53.291 5.9 1 7 102230 94
2004-04-14 06:34 51°16.368 2°53.149 6.3 352 7 102230 94
2004-04-14 06:35 51°16.576 2°53.006 7.4 345 7 102230 94
2004-04-14 06:36 51°16.788 2°52.863 7.2 343 7.1 102230 94
2004-04-14 06:37 51°17 2°52.754 7.2 345 7.1 102230 94
2004-04-14 06:38 51°17.225 2°52.673 7.2 347 7.2 102230 94
2004-04-14 06:39 51°17.457 2°52.638 7 351 7.3 102230 94
2004-04-14 06:40 51°17.689 2°52.603 6.7 355 7.4 102230 94
2004-04-14 06:41 51°17.925 2°52.565 6.3 356 7.4 102230 94
2004-04-14 06:42 51°18.154 2°52.526 5.5 356 7.5 102230 94
2004-04-14 06:43 51°18.388 2°52.496 5.4 359 7.5 102230 94
2004-04-14 06:44 51°18.621 2°52.468 5.7 358 7.5 102230 94
2004-04-14 06:45 51°18.854 2°52.439 5.6 355 7.5 102240 94
2004-04-14 06:46 51°19.086 2°52.413 6.8 352 7.5 102240 94
2004-04-14 06:47 51°19.326 2°52.438 6.2 350 7.6 102240 94
2004-04-14 06:48 51°19.555 2°52.509 5.9 351 7.6 102240 94
2004-04-14 06:49 51°19.781 2°52.638 5.5 352 7.7 102240 93
2004-04-14 06:50 51°20.006 2°52.771 5.1 356 7.7 102240 93
2004-04-14 06:51 51°20.237 2°52.902 5.1 352 7.7 102240 93
2004-04-14 06:52 51°20.456 2°53.046 5 355 7.8 102240 93
2004-04-14 06:53 51°20.674 2°53.207 5.1 358 7.8 102240 93
2004-04-14 06:54 51°20.897 2°53.369 5.5 357 7.9 102240 92
2004-04-14 06:55 51°21.111 2°53.525 5 358 7.9 102250 92
2004-04-14 06:56 51°21.334 2°53.687 5.2 357 7.9 102240 92
2004-04-14 06:57 51°21.548 2°53.847 4.9 358 8 102240 92
2004-04-14 06:58 51°21.77 2°54.012 5.1 2 8 102240 91
2004-04-14 06:59 51°21.989 2°54.174 5 2 8.1 102240 91
2004-04-14 07:00 51°22.204 2°54.333 5.1 6 8.1 102230 91
2004-04-14 07:01 51°22.422 2°54.494 5.2 4 8.2 102240 91
2004-04-14 07:02 51°22.639 2°54.657 4.5 6 8.2 102240 90
2004-04-14 07:03 51°22.859 2°54.819 4.6 8 8.2 102240 90
2004-04-14 07:04 51°23.077 2°54.978 5.3 10 8.2 102240 90
2004-04-14 07:05 51°23.297 2°55.135 5.9 12 8.3 102240 90
2004-04-14 07:06 51°23.518 2°55.294 5.5 10 8.3 102240 89
2004-04-14 07:07 51°23.738 2°55.453 5.5 7 8.3 102240 89
2004-04-14 07:08 51°23.958 2°55.618 5.6 8 8.2 102240 89
2004-04-14 07:09 51°24.18 2°55.785 5.3 6 8.2 102250 89
2004-04-14 07:10 51°24.401 2°55.958 5.6 2 8.2 102240 89
2004-04-14 07:11 51°24.613 2°56.158 5.6 4 8.2 102250 89
2004-04-14 07:12 51°24.824 2°56.361 5.5 4 8.2 102250 89
2004-04-14 07:13 51°25.037 2°56.562 5.8   8.2 102250 88
2004-04-14 07:14 51°25.249 2°56.762 5.9 4 8.2 102250 88
2004-04-14 07:15 51°25.464 2°56.966 6.6 1 8.2 102250 88
2004-04-14 07:16 51°25.675 2°57.168 5.9 7 8.2 102250 88
2004-04-14 07:17 51°25.882 2°57.365 6.4 6 8.1 102250 88
2004-04-14 07:18 51°26.097 2°57.567 6.4 10 8.1 102250 88
2004-04-14 07:19 51°26.302 2°57.765 6.3 14 8.1 102250 88
2004-04-14 07:20 51°26.506 2°57.967 6.1 14 8.1 102250 88
2004-04-14 07:21 51°26.713 2°58.17 6 15 8.1 102250 88
2004-04-14 07:22 51°26.908 2°58.379 6.5 17 8.1 102240 88
2004-04-14 07:23 51°27.099 2°58.614 6.6 19 8.2 102250 88
2004-04-14 07:24 51°27.285 2°58.856 6.1 18 8.1 102240 87
2004-04-14 07:25 51°27.462 2°59.118 6.2 19 8 102250 87
2004-04-14 07:26 51°27.64 2°59.378 6.5 18 8.1 102240 87
2004-04-14 07:27 51°27.819 2°59.637 7 20 8.1 102250 87
2004-04-14 07:28 51°27.986 2°59.93 6.7 22 8.1 102240 87
2004-04-14 07:29 51°28.122 3°0.247 6.4 21 8.1 102240 87
2004-04-14 07:30 51°28.264 3°0.565 5.9 16 8.2 102240 86
2004-04-14 07:31 51°28.421 3°0.876 5.9 13 8.2 102240 87
2004-04-14 07:32 51°28.574 3°1.176 6.3 15 8.2 102250 87
2004-04-14 07:33 51°28.729 3°1.48 5.7 13 8.2 102240 87
2004-04-14 07:34 51°28.886 3°1.784 5.9 11 8.1 102250 87
2004-04-14 07:35 51°29.045 3°2.096 5.7 10 8.1 102250 86
2004-04-14 07:36 51°29.203 3°2.401 5.8 14 8.2 102250 86
2004-04-14 07:37 51°29.356 3°2.704 5.9 15 8.2 102250 86
2004-04-14 07:38 51°29.515 3°3.016 6 17 8.2 102240 86
2004-04-14 07:39 51°29.663 3°3.308 5.7 12 8.2 102240 86
2004-04-14 07:40 51°29.824 3°3.624 6 9 8.3 102250 86
2004-04-14 07:41 51°29.983 3°3.935 6 7 8.3 102250 86
2004-04-14 07:42 51°30.14 3°4.24 6.6 7 8.3 102240 86
2004-04-14 07:43 51°30.293 3°4.536 6 9 8.3 102250 86
2004-04-14 07:44 51°30.448 3°4.839 6.2 9 8.4 102250 86
2004-04-14 07:45 51°30.604 3°5.142 5.7 13 8.4 102250 86
2004-04-14 07:46 51°30.761 3°5.445 5.6 13 8.3 102250 86
2004-04-14 07:47 51°30.916 3°5.749 5.5 11 8.4 102250 86
2004-04-14 07:48 51°31.072 3°6.053 5.5 5 8.4 102250 85
2004-04-14 07:49 51°31.23 3°6.364 5.7 10 8.4 102250 85
2004-04-14 07:50 51°31.386 3°6.669 5.1 8 8.4 102260 86
2004-04-14 07:51 51°31.54 3°6.969 5.8 5 8.4 102250 86
2004-04-14 07:52 51°31.696 3°7.275 5.8 3 8.4 102250 86
2004-04-14 07:53 51°31.851 3°7.58 5.4 2 8.4 102260 86
2004-04-14 07:54 51°32.008 3°7.885 5.7 6 8.5 102260 86
2004-04-14 07:55 51°32.167 3°8.195 5.7 3 8.4 102260 85
2004-04-14 07:56 51°32.313 3°8.505 5.6 9 8.4 102260 85
2004-04-14 07:57 51°32.46 3°8.831 6 10 8.4 102260 85
2004-04-14 07:58 51°32.6 3°9.146 6.1 9 8.4 102260 85
2004-04-14 07:59 51°32.741 3°9.466 5.8 6 8.5 102260 85
2004-04-14 08:00 51°32.888 3°9.79 6.4 4 8.5 102260 85
2004-04-14 08:01 51°33.033 3°10.11 5.8 3 8.5 102260 85
2004-04-14 08:02 51°33.177 3°10.431 6.3 8 8.5 102260 85
2004-04-14 08:03 51°33.319 3°10.748 5.8 10 8.5 102260 84
2004-04-14 08:04 51°33.463 3°11.071 6.1 3 8.6 102270 84
2004-04-14 08:05 51°33.608 3°11.393 5.8 6 8.6 102260 84
2004-04-14 08:06 51°33.754 3°11.722 5.7 5 8.6 102270 84
2004-04-14 08:07 51°33.895 3°12.041 6.1 8 8.6 102260 84
2004-04-14 08:08 51°34.04 3°12.374 6.3 4 8.6 102270 84
2004-04-14 08:09 51°34.181 3°12.702 6.4 3 8.6 102270 84
2004-04-14 08:10 51°34.323 3°13.032 6.1 4 8.6 102270 84
2004-04-14 08:11 51°34.464 3°13.351 5.7 4 8.6 102270 84
2004-04-14 08:12 51°34.608 3°13.674 6.7 5 8.6 102270 84
2004-04-14 08:13 51°34.752 3°14.001 6.6 5 8.6 102270 84
2004-04-14 08:14 51°34.892 3°14.317 7.1 7 8.6 102270 84
2004-04-14 08:15 51°35.036 3°14.644 7.2 10 8.6 102270 84
2004-04-14 08:16 51°35.176 3°14.961 6.9 13 8.6 102270 84
2004-04-14 08:17 51°35.32 3°15.283 6.7 11 8.6 102270 84
2004-04-14 08:18 51°35.462 3°15.606 7.2 16 8.6 102260 84
2004-04-14 08:19 51°35.607 3°15.937 6.6 19 8.6 102270 84
2004-04-14 08:20 51°35.751 3°16.262 6.6 15 8.6 102270 84
2004-04-14 08:21 51°35.891 3°16.58 6.7 18 8.6 102260 84
2004-04-14 08:22 51°36.036 3°16.91 6.7 17 8.6 102270 84
2004-04-14 08:23 51°36.177 3°17.23 6.2 19 8.6 102270 84
2004-04-14 08:24 51°36.323 3°17.554 6.6 15 8.6 102260 83
2004-04-14 08:25 51°36.474 3°17.88 6.6 15 8.7 102270 83
2004-04-14 08:26 51°36.626 3°18.207 6.8 15 8.6 102260 83
2004-04-14 08:27 51°36.78 3°18.539 6.1 13 8.7 102270 83
2004-04-14 08:28 51°36.929 3°18.861 6.3 13 8.6 102270 83
2004-04-14 08:29 51°37.145 3°19.048 6 4 8.6 102260 83
2004-04-14 08:30 51°37.385 3°19.168 6 7 8.6 102260 83
2004-04-14 08:31 51°37.626 3°19.292 5.9 10 8.6 102270 83
2004-04-14 08:32 51°37.866 3°19.414 5.5 11 8.6 102260 83
2004-04-14 08:33 51°38.102 3°19.532 5.2 11 8.6 102270 83
2004-04-14 08:34 51°38.338 3°19.651 5 16 8.6 102270 83
2004-04-14 08:35 51°38.562 3°19.82 6 19 8.6 102270 83
2004-04-14 08:36 51°38.756 3°20.064 6 23 8.7 102270 83
2004-04-14 08:37 51°38.935 3°20.339 6.6 27 8.8 102260 83
2004-04-14 08:38 51°39.11 3°20.622 6.7 23 8.7 102250 83
2004-04-14 08:39 51°39.286 3°20.902 6.4 22 8.7 102250 83
2004-04-14 08:40 51°39.463 3°21.18 6.1 25 8.7 102260 83
2004-04-14 08:41 51°39.635 3°21.467 7 22 8.7 102250 83
2004-04-14 08:42 51°39.796 3°21.771 6.8 27 8.7 102250 82
2004-04-14 08:43 51°39.96 3°22.072 7 22 8.7 102250 82
2004-04-14 08:44 51°40.124 3°22.371 7.5 24 8.8 102250 83
2004-04-14 08:45 51°40.289 3°22.67 7.8 24 8.8 102250 83
2004-04-14 08:46 51°40.455 3°22.968 7.7 25 8.8 102250 83
2004-04-14 08:47 51°40.621 3°23.267 7.9 22 8.8 102250 83
2004-04-14 08:48 51°40.795 3°23.552 7.7 23 8.7 102250 84
2004-04-14 08:49 51°40.978 3°23.824 7.9 21 8.7 102250 84
2004-04-14 08:50 51°41.16 3°24.099 7.7 24 8.7 102250 84
2004-04-14 08:51 51°41.342 3°24.373 7.9 22 8.7 102260 84
2004-04-14 08:52 51°41.525 3°24.649 7.9 21 8.6 102250 84
2004-04-14 08:53 51°41.707 3°24.924 7.8 21 8.6 102260 84
2004-04-14 08:54 51°41.889 3°25.202 8.2 17 8.7 102250 84
2004-04-14 08:55 51°42.073 3°25.478 8.3 18 8.7 102250 84
2004-04-14 08:56 51°42.258 3°25.755 8.1 18 8.6 102250 84
2004-04-14 08:57 51°42.442 3°26.033 8 18 8.6 102260 83
2004-04-14 08:58 51°42.617 3°26.325 8.2 12 8.6 102260 83
2004-04-14 08:59 51°42.793 3°26.622 8.2 16 8.6 102260 84
2004-04-14 09:00 51°42.925 3°26.95 8.6 15 8.6 102260 84
2004-04-14 09:01 51°43.053 3°27.29 8.1 16 8.6 102250 84
2004-04-14 09:02 51°43.185 3°27.628 7.8 20 8.6 102260 84
2004-04-14 09:03 51°43.318 3°27.965 8.4 17 8.6 102260 84
2004-04-14 09:04 51°43.458 3°28.298 8.4 20 8.6 102260 83
2004-04-14 09:05 51°43.595 3°28.631 8.6 18 8.7 102260 83
2004-04-14 09:06 51°43.732 3°28.966 8.7 20 8.7 102250 83
2004-04-14 09:07 51°43.869 3°29.303 8.9 18 8.7 102260 83
2004-04-14 09:08 51°44.008 3°29.637 8.8 19 8.7 102250 83
2004-04-14 09:09 51°44.133 3°29.985 8.7 18 8.7 102260 83
2004-04-14 09:10 51°44.247 3°30.342 8.6 18 8.7 102260 83
2004-04-14 09:11 51°44.364 3°30.698 8.9 19 8.7 102250 84
2004-04-14 09:12 51°44.481 3°31.056 8.9 15 8.7 102250 84
2004-04-14 09:13 51°44.583 3°31.427 8.9 15 8.7 102260 83
2004-04-14 09:14 51°44.684 3°31.8 9.1 16 8.7 102250 84
2004-04-14 09:15 51°44.771 3°32.18 9.2 15 8.7 102250 84
2004-04-14 09:16 51°44.858 3°32.559 8.5 14 8.7 102260 84
2004-04-14 09:17 51°44.941 3°32.937 8.4 15 8.7 102250 84
2004-04-14 09:18 51°45.024 3°33.315 8.4 13 8.7 102260 84
2004-04-14 09:19 51°45.107 3°33.69 8.4 9 8.8 102250 84
2004-04-14 09:20 51°45.189 3°34.062 7.8 11 8.8 102250 84
2004-04-14 09:21 51°45.272 3°34.434 8.2 9 8.8 102250 84
2004-04-14 09:22 51°45.352 3°34.807 8.9 4 8.8 102250 84
2004-04-14 09:23 51°45.426 3°35.184 8.4 7 8.8 102250 85
2004-04-14 09:24 51°45.501 3°35.562 8.6 5 8.7 102250 85
2004-04-14 09:25 51°45.576 3°35.938 7.9 4 8.6 102250 86
2004-04-14 09:26 51°45.645 3°36.203 4.8 6 8.6 102250 86
2004-04-14 09:27 51°45.688 3°36.312 1.6 314 8.5 102260 87
2004-04-14 09:28 51°45.702 3°36.329 1.8 297 8.6 102260 88
2004-04-14 09:29 51°45.705 3°36.38 2.3 311 8.7 102260 88
2004-04-14 09:30 51°45.688 3°36.46 2.5 311 8.7 102260 88
2004-04-14 09:31 51°45.651 3°36.536 2.2 307 8.7 102260 88
2004-04-14 09:32 51°45.609 3°36.593 1.6 300 8.7 102260 88
2004-04-14 09:33 51°45.567 3°36.634 1.1 292 8.8 102260 88
2004-04-14 09:34 51°45.524 3°36.665 0.9 292 8.9 102260 88
2004-04-14 09:35 51°45.483 3°36.691 0.8 291 9 102260 89
2004-04-14 09:36 51°45.443 3°36.727 0.7 284 9 102260 88
2004-04-14 09:37 51°45.403 3°36.743 0.1 284 9.1 102260 88
2004-04-14 09:38 51°45.365 3°36.732 0.7 20 9.2 102260 88
2004-04-14 09:39 51°45.327 3°36.704 0.8 37 9.3 102260 88
2004-04-14 09:40 51°45.291 3°36.67 0.9 69 9.3 102260 87
2004-04-14 09:41 51°45.259 3°36.629 1 69 9.3 102260 87
2004-04-14 09:42 51°45.231 3°36.58 1 69 9.3 102260 87
2004-04-14 09:43 51°45.203 3°36.53 1.1 62 9.3 102260 86
2004-04-14 09:44 51°45.173 3°36.481 0.9 64 9.2 102260 86
2004-04-14 09:45 51°45.146 3°36.427 1.1 64 9.1 102260 86
2004-04-14 09:46 51°45.124 3°36.366 1.1 60 9 102260 86
2004-04-14 09:47 51°45.101 3°36.306 1.2 56 9 102260 86
2004-04-14 09:48 51°45.076 3°36.249 0.9 66 9 102260 86
2004-04-14 09:49 51°45.05 3°36.192 0.7 67 9.1 102260 87
2004-04-14 09:50 51°45.023 3°36.135 0.7 53 9.3 102250 87
2004-04-14 09:51 51°44.996 3°36.08 0.9 51 9.4 102250 86
2004-04-14 09:52 51°44.967 3°36.026 0.8 39 9.4 102250 86
2004-04-14 09:53 51°44.939 3°35.973 0.8 42 9.4 102260 86
2004-04-14 09:54 51°44.909 3°35.922 0.7 42 9.4 102250 86
2004-04-14 09:55 51°44.878 3°35.871 0.7 48 9.5 102250 86
2004-04-14 09:56 51°44.848 3°35.822 0.9 50 9.5 102250 86
2004-04-14 09:57 51°44.816 3°35.77 1 53 9.5 102250 85
2004-04-14 09:58 51°44.784 3°35.72 1.1 43 9.6 102250 85
2004-04-14 09:59 51°44.756 3°35.668 1.1 42 9.6 102250 85
2004-04-14 10:00 51°44.732 3°35.607 1.2 54 9.4 102250 84
2004-04-14 10:01 51°44.718 3°35.541 1.4 61 9.3 102250 85
2004-04-14 10:02 51°44.713 3°35.466 1.7 48 9 102250 85
2004-04-14 10:03 51°44.718 3°35.388 2 56 9 102250 85
2004-04-14 10:04 51°44.733 3°35.31 2 50 8.9 102250 85
2004-04-14 10:05 51°44.757 3°35.241 1.4 43 8.8 102240 86
2004-04-14 10:06 51°44.785 3°35.19 1.1 43 8.8 102250 87
2004-04-14 10:07 51°44.812 3°35.148 1.3 47 8.8 102240 88
2004-04-14 10:08 51°44.867 3°35.118 2 34 8.8 102240 87
2004-04-14 10:09 51°44.932 3°35.125 2.4 35 8.7 102240 87
2004-04-14 10:10 51°44.995 3°35.157 2.5 25 8.6 102240 88
2004-04-14 10:11 51°45.05 3°35.209 2.2 23 8.7 102240 88
2004-04-14 10:12 51°45.092 3°35.269 1.9 18 8.8 102240 89
2004-04-14 10:13 51°45.128 3°35.335 2.2 23 8.8 102240 89
2004-04-14 10:14 51°45.163 3°35.397 2.4 20 8.9 102240 89
2004-04-14 10:15 51°45.199 3°35.459 1.8 19 8.9 102230 89
2004-04-14 10:16 51°45.234 3°35.521 1.8 24 9 102240 88
2004-04-14 10:17 51°45.266 3°35.584 2 26 9 102230 88
2004-04-14 10:18 51°45.294 3°35.651 1.9 18 9 102240 88
2004-04-14 10:19 51°45.32 3°35.718 2.1 28 9 102230 88
2004-04-14 10:20 51°45.346 3°35.785 1.9 28 9 102230 87
2004-04-14 10:21 51°45.374 3°35.853 1.7 34 9 102230 87
2004-04-14 10:22 51°45.402 3°35.92 2 31 8.9 102230 87
2004-04-14 10:23 51°45.43 3°35.987 2.1 34 8.9 102230 87
2004-04-14 10:24 51°45.458 3°36.054 2.3 28 8.9 102240 87
2004-04-14 10:25 51°45.487 3°36.122 2.1 32 9 102230 87
2004-04-14 10:26 51°45.516 3°36.191 1.9 27 9 102230 86
2004-04-14 10:27 51°45.546 3°36.264 2.1 37 9 102230 86
2004-04-14 10:28 51°45.577 3°36.34 2.5 33 8.9 102230 86
2004-04-14 10:29 51°45.608 3°36.418 2.6 26 8.9 102220 86
2004-04-14 10:30 51°45.635 3°36.498 2.7 18 9 102230 87
2004-04-14 10:31 51°45.659 3°36.579 2.8 17 9.1 102230 87
2004-04-14 10:32 51°45.681 3°36.661 2.5 15 9.2 102230 86
2004-04-14 10:33 51°45.702 3°36.744 2.5 19 9.2 102220 86
2004-04-14 10:34 51°45.72 3°36.828 2.4 13 9.3 102220 86
2004-04-14 10:35 51°45.737 3°36.911 2.3 13 9.4 102220 86
2004-04-14 10:36 51°45.75 3°36.993 2.2 15 9.5 102220 86
2004-04-14 10:37 51°45.766 3°37.074 2.1 15 9.6 102220 85
2004-04-14 10:38 51°45.785 3°37.154 2.3 15 9.6 102220 85
2004-04-14 10:39 51°45.81 3°37.237 2.4 16 9.6 102230 85
2004-04-14 10:40 51°45.834 3°37.313 2.1 8 9.6 102230 84
2004-04-14 10:41 51°45.85 3°37.378 1.9 359 9.7 102220 84
2004-04-14 10:42 51°45.861 3°37.435 2 346 9.8 102230 84
2004-04-14 10:43 51°45.867 3°37.483 1.7 332 9.9 102220 84
2004-04-14 10:44 51°45.872 3°37.524 1.5 317 10.1 102230 84
2004-04-14 10:45 51°45.868 3°37.567 2.2 329 10.1 102220 83
2004-04-14 10:46 51°45.795 3°37.579 3 353 10.2 102220 83
2004-04-14 10:47 51°45.739 3°37.342 5.8 11 10.1 102220 81
2004-04-14 10:48 51°45.684 3°37.003 5.8 12 9.8 102220 81
2004-04-14 10:49 51°45.631 3°36.675 6.3 11 9.6 102220 82
2004-04-14 10:50 51°45.577 3°36.33 7.1 6 9.5 102220 82
2004-04-14 10:51 51°45.526 3°35.996 6.7 7 9.3 102220 83
2004-04-14 10:52 51°45.474 3°35.65 6.4 8 9.2 102220 83
2004-04-14 10:53 51°45.423 3°35.31 7.3 7 9.2 102210 83
2004-04-14 10:54 51°45.37 3°34.97 7.1 4 9.2 102210 84
2004-04-14 10:55 51°45.294 3°34.65 6.7 7 9.1 102210 84
2004-04-14 10:56 51°45.216 3°34.318 7.2 6 9.1 102210 85
2004-04-14 10:57 51°45.139 3°33.997 6.9 7 9 102210 84
2004-04-14 10:58 51°45.057 3°33.666 7.2 5 9 102210 84
2004-04-14 10:59 51°44.968 3°33.352 7.4 4 9.1 102200 84
2004-04-14 11:00 51°44.879 3°33.017 7.4 6 9.1 102200 84
2004-04-14 11:01 51°44.796 3°32.696 7.4 3 9.1 102200 83
2004-04-14 11:02 51°44.708 3°32.362 7.5 360 9.1 102200 83
2004-04-14 11:03 51°44.623 3°32.043 7.1 359 9.1 102200 83
2004-04-14 11:04 51°44.508 3°31.748 7.5 360 9.2 102190 83
2004-04-14 11:05 51°44.364 3°31.494 7.2 358 9.2 102190 83
2004-04-14 11:06 51°44.213 3°31.254 7.9 360 9.2 102190 83
2004-04-14 11:07 51°44.056 3°31.014 8   9.2 102190 83
2004-04-14 11:08 51°43.902 3°30.773 7.7 357 9.2 102190 83
2004-04-14 11:09 51°43.753 3°30.539 7.3 358 9.1 102190 83
2004-04-14 11:10 51°43.604 3°30.304 7 357 9.1 102190 83
2004-04-14 11:11 51°43.45 3°30.056 7.2   9.1 102190 83
2004-04-14 11:12 51°43.302 3°29.819 6.9 356 9.1 102190 84
2004-04-14 11:13 51°43.154 3°29.576 7.2 357 9.2 102180 84
2004-04-14 11:14 51°43.005 3°29.332 7.6 353 9.2 102180 84
2004-04-14 11:15 51°42.857 3°29.097 7.3 354 9.3 102190 84
2004-04-14 11:16 51°42.695 3°28.869 7 354 9.3 102180 84
2004-04-14 11:17 51°42.535 3°28.644 7.1 356 9.3 102190 83
2004-04-14 11:18 51°42.373 3°28.438 7.3 356 9.3 102190 83
2004-04-14 11:19 51°42.203 3°28.226 7 358 9.3 102190 83
2004-04-14 11:20 51°42.035 3°28.009 7.3 358 9.3 102180 83
2004-04-14 11:21 51°41.872 3°27.799 6.4 359 9.3 102180 83
2004-04-14 11:22 51°41.704 3°27.58 6.8 356 9.3 102180 83
2004-04-14 11:23 51°41.541 3°27.371 7.1 356 9.2 102180 83
2004-04-14 11:24 51°41.379 3°27.161 7 354 9.3 102180 83
2004-04-14 11:25 51°41.208 3°26.941 6.5 354 9.3 102180 83
2004-04-14 11:26 51°41.051 3°26.742 7.1 355 9.4 102170 83
2004-04-14 11:27 51°40.883 3°26.529 7 354 9.4 102180 82
2004-04-14 11:28 51°40.716 3°26.318 7 355 9.4 102170 82
2004-04-14 11:29 51°40.55 3°26.112 6.9 354 9.5 102170 82
2004-04-14 11:30 51°40.384 3°25.907 6.5 354 9.5 102170 82
2004-04-14 11:31 51°40.217 3°25.702 7 355 9.5 102170 82
2004-04-14 11:32 51°40.049 3°25.496 6.6 356 9.5 102170 82
2004-04-14 11:33 51°39.886 3°25.297 6.9 355 9.5 102160 82
2004-04-14 11:34 51°39.709 3°25.079 6.7 354 9.5 102170 82
2004-04-14 11:35 51°39.547 3°24.876 6.6 351 9.5 102160 82
2004-04-14 11:36 51°39.372 3°24.661 6.7 354 9.5 102160 81
2004-04-14 11:37 51°39.207 3°24.447 6.6 357 9.5 102160 81
2004-04-14 11:38 51°39.038 3°24.224 7 357 9.4 102160 81
2004-04-14 11:39 51°38.873 3°24.004 7.2 359 9.4 102160 81
2004-04-14 11:40 51°38.707 3°23.777 7.1 358 9.4 102160 81
2004-04-14 11:41 51°38.535 3°23.562 7.3 359 9.3 102160 82
2004-04-14 11:42 51°38.327 3°23.486 7.6 360 9.3 102160 82
2004-04-14 11:43 51°38.113 3°23.468 7.3 2 9.4 102160 82
2004-04-14 11:44 51°37.894 3°23.446 7.4 2 9.3 102160 82
2004-04-14 11:45 51°37.684 3°23.421 7.3 6 9.3 102160 82
2004-04-14 11:46 51°37.47 3°23.417 6.7 2 9.3 102160 81
2004-04-14 11:47 51°37.257 3°23.461 6.4 4 9.4 102160 82
2004-04-14 11:48 51°37.047 3°23.506 6.7 5 9.4 102160 81
2004-04-14 11:49 51°36.839 3°23.556 6.5 359 9.4 102150 81
2004-04-14 11:50 51°36.629 3°23.66 6.2 359 9.5 102150 81
2004-04-14 11:51 51°36.45 3°23.829 6.9 358 9.5 102150 81
2004-04-14 11:52 51°36.268 3°24.008 5.8 356 9.6 102150 81
2004-04-14 11:53 51°36.174 3°24.128 2.4 342 9.6 102150 82
2004-04-14 11:54 51°36.162 3°24.205 1.7 309 9.8 102150 81
2004-04-14 11:55 51°36.184 3°24.223 1.7 318 9.8 102150 81
2004-04-14 11:56 51°36.209 3°24.234 1.7 330 9.9 102150 81
2004-04-14 11:57 51°36.236 3°24.243 1.9 330 10 102150 81
2004-04-14 11:58 51°36.262 3°24.25 2.1 327 10.1 102150 80
2004-04-14 11:59 51°36.286 3°24.256 1.7 325 10.1 102150 80
2004-04-14 12:00 51°36.312 3°24.287 2.1 317 10.1 102150 79
2004-04-14 12:01 51°36.331 3°24.371 2.6 327 10.2 102150 79
2004-04-14 12:02 51°36.344 3°24.472 2.8 334 10.2 102150 79
2004-04-14 12:03 51°36.358 3°24.579 3 336 10.2 102150 79
2004-04-14 12:04 51°36.375 3°24.676 2.9 333 10.2 102150 79
2004-04-14 12:05 51°36.396 3°24.764 2.6 333 10.2 102150 78
2004-04-14 12:06 51°36.409 3°24.843 2.8 329 10.2 102150 78
2004-04-14 12:07 51°36.419 3°24.924 2.7 331 10.3 102150 78
2004-04-14 12:08 51°36.429 3°25.002 2.4 335 10.3 102150 78
2004-04-14 12:09 51°36.438 3°25.081 2.6 333 10.3 102150 78
2004-04-14 12:10 51°36.446 3°25.157 2.6 334 10.3 102150 78
2004-04-14 12:11 51°36.456 3°25.237 2.2 336 10.3 102140 78
2004-04-14 12:12 51°36.464 3°25.318 2.4 329 10.4 102140 78
2004-04-14 12:13 51°36.472 3°25.399 2.3 328 10.4 102140 78
2004-04-14 12:14 51°36.48 3°25.485 2.5 330 10.4 102140 77
2004-04-14 12:15 51°36.488 3°25.57 2.5 333 10.4 102140 77
2004-04-14 12:16 51°36.494 3°25.651 2.4 336 10.5 102140 77
2004-04-14 12:17 51°36.501 3°25.733 2.3 331 10.5 102140 77
2004-04-14 12:18 51°36.507 3°25.815 2.2 329 10.5 102140 77
2004-04-14 12:19 51°36.513 3°25.896 2 327 10.5 102140 77
2004-04-14 12:20 51°36.518 3°25.978 2.3 321 10.6 102140 77
2004-04-14 12:21 51°36.524 3°26.058 2 324 10.6 102140 77
2004-04-14 12:22 51°36.53 3°26.141 2.3 324 10.6 102130 77
2004-04-14 12:23 51°36.536 3°26.223 2.2 322 10.7 102140 76
2004-04-14 12:24 51°36.536 3°26.302 2.2 323 10.7 102140 76
2004-04-14 12:25 51°36.538 3°26.379 2.3 321 10.7 102130 76
2004-04-14 12:26 51°36.544 3°26.46 2.4 326 10.8 102140 76
2004-04-14 12:27 51°36.553 3°26.538 2.4 328 10.8 102140 76
2004-04-14 12:28 51°36.567 3°26.612 2.2 324 10.8 102130 76
2004-04-14 12:29 51°36.574 3°26.672 1.6 313 10.8 102140 75
2004-04-14 12:30 51°36.563 3°26.717 1.3 299 10.7 102130 75
2004-04-14 12:31 51°36.524 3°26.719 0.6 352 10.8 102130 76
2004-04-14 12:32 51°36.479 3°26.66 1.1 39 10.9 102140 76
2004-04-14 12:33 51°36.438 3°26.577 1.6 59 10.9 102140 74
2004-04-14 12:34 51°36.413 3°26.48 1.7 64 10.7 102140 74
2004-04-14 12:35 51°36.404 3°26.379 1.9 67 10.5 102140 75
2004-04-14 12:36 51°36.398 3°26.286 1.8 75 10.2 102130 76
2004-04-14 12:37 51°36.388 3°26.192 2 79 10.1 102140 78
2004-04-14 12:38 51°36.376 3°26.101 2.2 80 10 102140 78
2004-04-14 12:39 51°36.365 3°26.008 2.4 81 9.9 102140 78
2004-04-14 12:40 51°36.354 3°25.915 2.4 82 9.9 102140 79
2004-04-14 12:41 51°36.344 3°25.822 2.6 82 9.8 102140 80
2004-04-14 12:42 51°36.333 3°25.728 2.6 84 9.8 102130 80
2004-04-14 12:43 51°36.322 3°25.633 2.5 85 9.8 102140 80
2004-04-14 12:44 51°36.311 3°25.541 2.4 88 9.8 102130 80
2004-04-14 12:45 51°36.301 3°25.451 2.2 92 9.8 102130 80
2004-04-14 12:46 51°36.292 3°25.361 2 87 9.8 102130 81
2004-04-14 12:47 51°36.283 3°25.275 2.1 91 9.9 102130 81
2004-04-14 12:48 51°36.274 3°25.185 2 93 9.9 102130 80
2004-04-14 12:49 51°36.265 3°25.1 2.3 92 9.9 102130 81
2004-04-14 12:50 51°36.255 3°25.011 2 93 9.9 102130 81
2004-04-14 12:51 51°36.246 3°24.926 2 93 9.9 102130 81
2004-04-14 12:52 51°36.237 3°24.84 2 93 9.9 102130 80
2004-04-14 12:53 51°36.229 3°24.755 2.3 92 9.9 102130 80
2004-04-14 12:54 51°36.22 3°24.666 2.2 92 9.9 102130 80
2004-04-14 12:55 51°36.21 3°24.58 2.1 92 9.9 102130 80
2004-04-14 12:56 51°36.2 3°24.494 2.1 89 9.9 102130 81
2004-04-14 12:57 51°36.19 3°24.407 2.1 94 9.8 102130 81
2004-04-14 12:58 51°36.183 3°24.318 2.1 92 9.9 102120 81
2004-04-14 12:59 51°36.181 3°24.23 2.4 86 9.9 102120 81
2004-04-14 13:00 51°36.189 3°24.139 2.3 74 9.8 102120 81
2004-04-14 13:01 51°36.207 3°24.049 2.7 64 9.8 102120 82
2004-04-14 13:02 51°36.232 3°23.963 3.1 54 9.7 102120 82
2004-04-14 13:03 51°36.266 3°23.868 3 49 9.6 102120 82
2004-04-14 13:04 51°36.3 3°23.787 2.9 49 9.6 102120 83
2004-04-14 13:05 51°36.335 3°23.718 2.9 48 9.6 102120 83
2004-04-14 13:06 51°36.375 3°23.669 2.8 26 9.5 102120 83
2004-04-14 13:07 51°36.401 3°23.638 2.3 22 9.7 102120 84
2004-04-14 13:08 51°36.424 3°23.61 2.5 22 10 102120 84
2004-04-14 13:09 51°36.454 3°23.583 3.7 14 10.1 102120 83
2004-04-14 13:10 51°36.535 3°23.638 5.3 342 10.1 102120 82
2004-04-14 13:11 51°36.498 3°23.796 4 343 10.2 102120 82
2004-04-14 13:12 51°36.358 3°23.962 5.1 346 10.2 102120 82
2004-04-14 13:13 51°36.207 3°24.122 4.4 351 10.3 102120 82
2004-04-14 13:14 51°36.056 3°24.288 5 347 10.4 102120 81
2004-04-14 13:15 51°35.913 3°24.473 5.2 347 10.5 102110 81
2004-04-14 13:16 51°35.773 3°24.649 4.9 345 10.6 102110 80
2004-04-14 13:17 51°35.625 3°24.839 4.9 343 10.6 102110 80
2004-04-14 13:18 51°35.48 3°25.003 4.4 344 10.7 102110 80
2004-04-14 13:19 51°35.325 3°25.159 4.4 342 10.8 102110 79
2004-04-14 13:20 51°35.218 3°25.311 2 306 10.7 102100 79
2004-04-14 13:21 51°35.156 3°25.328 0.7 225 10.7 102110 79
2004-04-14 13:22 51°35.12 3°25.295 1.6 158 10.8 102110 79
2004-04-14 13:23 51°35.094 3°25.254 1.7 161 10.8 102110 78
2004-04-14 13:24 51°35.073 3°25.221 1.3 180 10.7 102100 78
2004-04-14 13:25 51°35.055 3°25.197 1 194 10.6 102100 78
2004-04-14 13:26 51°35.041 3°25.178 1.8 208 10.6 102110 79
2004-04-14 13:27 51°35.029 3°25.164 1.9 217 10.5 102100 79
2004-04-14 13:28 51°35.007 3°25.161 0.8 266 10.3 102100 79
2004-04-14 13:29 51°34.914 3°25.04 4.6 39 10.4 102100 80
2004-04-14 13:30 51°34.935 3°24.736 7.7 26 10.2 102090 80
2004-04-14 13:31 51°34.976 3°24.363 7.8 26 10.2 102090 81
2004-04-14 13:32 51°34.943 3°23.988 7.2 27 10.2 102090 81
2004-04-14 13:33 51°34.885 3°23.628 6.9 28 10.2 102090 82
2004-04-14 13:34 51°34.824 3°23.252 6.8 29 10.2 102090 82
2004-04-14 13:35 51°34.764 3°22.872 6.6 29 10.1 102090 82
2004-04-14 13:36 51°34.704 3°22.496 6.2 32 10.1 102090 82
2004-04-14 13:37 51°34.644 3°22.127 6.3 29 10.2 102090 82
2004-04-14 13:38 51°34.591 3°21.756 6.3 28 10.2 102090 82
2004-04-14 13:39 51°34.53 3°21.376 6.4 28 10.2 102090 83
2004-04-14 13:40 51°34.47 3°21.001 6.7 26 10.2 102090 83
2004-04-14 13:41 51°34.407 3°20.626 6.4 32 10.2 102090 82
2004-04-14 13:42 51°34.305 3°20.28 5.1 26 10.2 102090 83
2004-04-14 13:43 51°34.192 3°19.949 5.6 27 10.3 102090 83
2004-04-14 13:44 51°34.081 3°19.609 5.5 26 10.4 102090 82
2004-04-14 13:45 51°33.972 3°19.266 5.6 22 10.4 102090 82
2004-04-14 13:46 51°33.864 3°18.927 5.7 26 10.4 102090 82
2004-04-14 13:47 51°33.758 3°18.588 5.5 26 10.4 102090 82
2004-04-14 13:48 51°33.652 3°18.249 5.8 27 10.4 102090 82
2004-04-14 13:49 51°33.547 3°17.91 5.7 29 10.4 102080 82
2004-04-14 13:50 51°33.443 3°17.57 5.8 30 10.4 102080 82
2004-04-14 13:51 51°33.338 3°17.223 6.3 33 10.4 102080 82
2004-04-14 13:52 51°33.236 3°16.887 6.2 35 10.3 102080 82
2004-04-14 13:53 51°33.132 3°16.547 5.9 36 10.1 102080 82
2004-04-14 13:54 51°33.027 3°16.204 6.3 35 10 102080 83
2004-04-14 13:55 51°32.921 3°15.862 6.7 39 10 102080 83
2004-04-14 13:56 51°32.816 3°15.519 6.2 36 9.8 102070 83
2004-04-14 13:57 51°32.71 3°15.177 6 35 9.7 102070 83
2004-04-14 13:58 51°32.603 3°14.835 6 36 9.7 102070 84
2004-04-14 13:59 51°32.492 3°14.499 5.7 35 9.7 102070 84
2004-04-14 14:00 51°32.377 3°14.163 6.1 40 9.7 102070 84
2004-04-14 14:01 51°32.263 3°13.827 6.2 35 9.6 102070 84
2004-04-14 14:02 51°32.148 3°13.494 6.1 37 9.5 102070 84
2004-04-14 14:03 51°32.032 3°13.161 5.6 36 9.5 102070 84
2004-04-14 14:04 51°31.916 3°12.827 5.4 34 9.6 102070 84
2004-04-14 14:05 51°31.799 3°12.495 5.5 39 9.6 102070 84
2004-04-14 14:06 51°31.675 3°12.17 5.9 42 9.7 102070 84
2004-04-14 14:07 51°31.55 3°11.847 6 41 9.7 102070 84
2004-04-14 14:08 51°31.421 3°11.52 6.4 41 9.7 102070 84
2004-04-14 14:09 51°31.295 3°11.204 6.3 39 9.6 102070 84
2004-04-14 14:10 51°31.167 3°10.882 5.4 35 9.7 102070 85
2004-04-14 14:11 51°31.038 3°10.562 5.5 33 9.7 102070 85
2004-04-14 14:12 51°30.909 3°10.24 5.1 37 9.7 102070 85
2004-04-14 14:13 51°30.779 3°9.918 5.1 39 9.7 102070 85
2004-04-14 14:14 51°30.647 3°9.591 5.5 42 9.7 102060 85
2004-04-14 14:15 51°30.52 3°9.277 5.6 40 9.8 102070 86
2004-04-14 14:16 51°30.386 3°8.948 5.2 39 9.7 102060 85
2004-04-14 14:17 51°30.258 3°8.631 4.9 39 9.8 102060 86
2004-04-14 14:18 51°30.129 3°8.309 4.7 34 9.8 102060 86
2004-04-14 14:19 51°30 3°7.988 4.7 42 9.8 102060 86
2004-04-14 14:20 51°29.871 3°7.665 4.5 38 9.8 102060 86
2004-04-14 14:21 51°29.742 3°7.341 5.4 46 9.8 102050 86
2004-04-14 14:22 51°29.613 3°7.016 5.4 47 9.9 102050 86
2004-04-14 14:23 51°29.481 3°6.689 4.6 37 9.8 102050 85
2004-04-14 14:24 51°29.349 3°6.359 5.3 36 9.8 102050 85
2004-04-14 14:25 51°29.221 3°6.04 5.2 38 9.8 102050 85
2004-04-14 14:26 51°29.091 3°5.715 4.9 42 9.8 102040 85
2004-04-14 14:27 51°28.96 3°5.384 4.7 40 9.9 102040 85
2004-04-14 14:28 51°28.833 3°5.063 4.8 36 9.9 102040 85
2004-04-14 14:29 51°28.704 3°4.738 4.6 36 9.9 102040 84
2004-04-14 14:30 51°28.576 3°4.411 5.1 34 10 102040 84
2004-04-14 14:31 51°28.448 3°4.083 5.1 31 10 102040 83
2004-04-14 14:32 51°28.319 3°3.756 5 33 10.1 102040 83
2004-04-14 14:33 51°28.186 3°3.431 5.2 27 10.2 102030 82
2004-04-14 14:34 51°28.052 3°3.105 5.5 26 10.3 102030 82
2004-04-14 14:35 51°27.917 3°2.781 5.8 30 10.4 102030 81
2004-04-14 14:36 51°27.783 3°2.457 6.2 29 10.4 102030 80
2004-04-14 14:37 51°27.65 3°2.125 6.8 33 10.4 102030 81
2004-04-14 14:38 51°27.552 3°1.78 5.7 32 10.4 102020 80
2004-04-14 14:39 51°27.415 3°1.457 5.5 32 10.3 102030 80
2004-04-14 14:40 51°27.278 3°1.132 4.9 34 10.3 102020 80
2004-04-14 14:41 51°27.138 3°0.807 5.3 30 10.3 102020 81
2004-04-14 14:42 51°26.999 3°0.485 5.6 26 10.3 102020 80
2004-04-14 14:43 51°26.859 3°0.157 5.5 26 10.4 102020 79
2004-04-14 14:44 51°26.707 2°59.859 5.1 26 10.5 102020 79
2004-04-14 14:45 51°26.548 2°59.551 5.2 25 10.6 102020 78
2004-04-14 14:46 51°26.393 2°59.252 5.1 23 10.7 102020 78
2004-04-14 14:47 51°26.237 2°58.947 5.2 24 10.7 102020 78
2004-04-14 14:48 51°26.082 2°58.64 4.9 22 10.8 102020 77
2004-04-14 14:49 51°25.911 2°58.357 4.8 19 10.8 102020 77
2004-04-14 14:50 51°25.735 2°58.081 5 19 10.8 102010 76
2004-04-14 14:51 51°25.555 2°57.813 4.6 16 10.9 102010 76
2004-04-14 14:52 51°25.356 2°57.581 5 15 10.9 102020 76
2004-04-14 14:53 51°25.159 2°57.347 5.2 14 10.9 102010 76
2004-04-14 14:54 51°24.955 2°57.134 5.5 13 11 102010 77
2004-04-14 14:55 51°24.733 2°56.978 5.1 12 11 102010 78
2004-04-14 14:56 51°24.508 2°56.818 4.8 8 10.9 102010 78
2004-04-14 14:57 51°24.28 2°56.654 4.5 5 10.9 102010 78
2004-04-14 14:58 51°24.06 2°56.496 4.6 8 10.9 102010 78
2004-04-14 14:59 51°23.835 2°56.334 4.6 8 10.8 102010 78
2004-04-14 15:00 51°23.61 2°56.172 4.9 8 10.8 102000 78
2004-04-14 15:01 51°23.385 2°56.007 5.6 10 10.8 102000 79
2004-04-14 15:02 51°23.159 2°55.843 4.9 11 10.8 102000 79
2004-04-14 15:03 51°22.934 2°55.676 4.8 7 10.8 102000 79
2004-04-14 15:04 51°22.705 2°55.509 4.7 10 10.7 102000 79
2004-04-14 15:05 51°22.484 2°55.348 4.3 10 10.8 102000 79
2004-04-14 15:06 51°22.261 2°55.185 4.6 13 10.7 101990 79
2004-04-14 15:07 51°22.033 2°55.018 4.5 9 10.8 101990 79
2004-04-14 15:08 51°21.813 2°54.859 4.6 8 10.9 101990 79
2004-04-14 15:09 51°21.586 2°54.699 4.6 4 10.9 101990 79
2004-04-14 15:10 51°21.361 2°54.537 4.3 7 10.9 101990 79
2004-04-14 15:11 51°21.136 2°54.373 4.3 1 10.9 101990 79
2004-04-14 15:12 51°20.909 2°54.212 4.3 360 10.9 101990 79
2004-04-14 15:13 51°20.683 2°54.049 3.8 2 10.9 101990 79
2004-04-14 15:14 51°20.456 2°53.884 3.9 358 10.9 101980 78
2004-04-14 15:15 51°20.23 2°53.717 4.1 4 10.9 101980 77
2004-04-14 15:16 51°20.005 2°53.554 3.9 10 10.9 101980 76
2004-04-14 15:17 51°19.782 2°53.393 4.2 4 10.9 101980 76
2004-04-14 15:18 51°19.555 2°53.24 3.9 359 10.9 101970 75
2004-04-14 15:19 51°19.328 2°53.087 3.2 356 11 101970 75
2004-04-14 15:20 51°19.099 2°52.932 3.7 358 11 101970 74
2004-04-14 15:21 51°18.867 2°52.79 3.7 353 11.1 101970 74
2004-04-14 15:22 51°18.631 2°52.666 3.9 360 11.1 101970 74
2004-04-14 15:23 51°18.396 2°52.545 3.9 357 11 101970 75
2004-04-14 15:24 51°18.16 2°52.422 3.9 359 11 101960 75
2004-04-14 15:25 51°17.923 2°52.31 4 353 11 101960 75
2004-04-14 15:26 51°17.681 2°52.238 4.4 349 11 101960 75
2004-04-14 15:27 51°17.436 2°52.236 5.2 340 11 101960 75
2004-04-14 15:28 51°17.202 2°52.299 5 341 11 101960 76
2004-04-14 15:29 51°16.969 2°52.386 4.9 344 10.9 101950 76
2004-04-14 15:30 51°16.741 2°52.497 5.2 342 10.9 101960 76
2004-04-14 15:31 51°16.518 2°52.633 5.7 340 10.9 101950 76
2004-04-14 15:32 51°16.311 2°52.813 5.5 339 10.9 101950 77
2004-04-14 15:33 51°16.111 2°52.994 5.8 339 10.8 101950 77
2004-04-14 15:34 51°15.913 2°53.174 6.1 335 10.8 101950 77
2004-04-14 15:35 51°15.717 2°53.361 6.5 334 10.8 101940 76
2004-04-14 15:36 51°15.522 2°53.55 6.2 332 10.7 101940 76
2004-04-14 15:37 51°15.332 2°53.75 6 333 10.7 101940 77
2004-04-14 15:38 51°15.144 2°53.948 6.1 333 10.7 101940 77
2004-04-14 15:39 51°14.963 2°54.157 6.7 332 10.7 101940 77
2004-04-14 15:40 51°14.782 2°54.37 6.2 338 10.7 101940 77
2004-04-14 15:41 51°14.606 2°54.606 6.3 337 10.7 101940 78